Regional Weather Roundup
Issued by NWS Sterling, VA

Home | Current Version | Previous Version | Text Only | Print | Product List | Glossary On
Versions: 1 2 3 4 5 6 7 8 9 10 11 12 13 14 15 16 17 18 19 20 21 22 23 24 25 26 27
000
ASUS41 KLWX 271210
RWRLWX

REGIONAL WEATHER ROUNDUP
NATIONAL WEATHER SERVICE BALTIMORE MD/WASHINGTON DC
800 AM EDT MON JUN 27 2016

Note: "FAIR" indicates few or no clouds below 12,000 feet
with no significant weather and/or obstructions to visibility.
 TC=TEMPERATURE CELSIUS

 * =Non NWS site. Station does not report precipitation (e.g. rain,
    snow, etc.), thunder, or fog.

DCZ001-MDZ009-015-VAZ040>042-051-053>054-271300-
WASHINGTON METRO

CITY           SKY/WX    TMP DP  RH WIND       PRES   REMARKS
WASHINGTON NAT FAIR      71  65  81 S10       30.10S
DULLES         FAIR      69  64  84 S9        30.09S
ANDREWS AFB    SUNNY     69  66  89 S8        30.09F
FT BELVOIR     FAIR      71  65  82 S7        30.10S
QUANTICO       FAIR      71  65  81 SW10      30.11S
COLLEGE PARK*  FAIR      70  63  78 S5        30.09S
LEESBURG*      FAIR      70  66  88 S6        30.11S
MANASSAS*      MOSUNNY   70  66  88 S8        30.10S
GAITHERSBURG*  MOSUNNY   70  61  73 S7        30.14R

$$

MDZ006>007-011-014-271300-
BALTIMORE METRO

CITY           SKY/WX    TMP DP  RH WIND       PRES   REMARKS
BWI AIRPORT    MOSUNNY   70  64  81 SW7       30.09F
MD SCIENCE CTR   N/A     71  63  75 MISG      30.10S
MARTIN STATE   MOSUNNY   73  70  88 S12       30.10F
ANNAPOLIS      SUNNY     72  65  78 S9        30.09F
FORT MEADE*    SUNNY     68  63  83 SW3       30.12R

$$

MDZ012-015-019>023-271300-
MARYLAND EASTERN SHORE

CITY           SKY/WX    TMP DP  RH WIND       PRES   REMARKS
OCEAN CITY     CLOUDY    71  68  90 CALM      30.12S
SALISBURY      CLOUDY    68  66  93 CALM      30.12S
BAY BRIDGE AP* SUNNY     72  66  83 S6        30.09F
CAMBRIDGE*     CLOUDY    64  64 100 SE5       30.11S VSB 3/4
EASTON*        CLOUDY    68  68 100 S5        30.15S

$$

MDZ017>025-271300-
SOUTHERN MARYLAND

CITY           SKY/WX    TMP DP  RH WIND       PRES   REMARKS
PATUXENT RIVER PTSUNNY   69  65  86 MISG      30.11S
ST INIGOES     MOSUNNY   69  67  93 VRB5      30.11R
LEONARDTOWN*   MOSUNNY   70  64  83 S3        30.12S

$$

MDZ003>005-271300-
NORTH CENTRAL MARYLAND

CITY           SKY/WX    TMP DP  RH WIND       PRES   REMARKS
FREDERICK*     PTSUNNY   68  64  88 CALM      30.13R
HAGERSTOWN APT PTSUNNY   71  61  70 S7        30.08S
WESTMINSTER*   MOSUNNY   70  66  88 CALM      30.10F

$$

MDZ501>502-271300-
WESTERN MARYLAND

CITY           SKY/WX    TMP DP  RH WIND       PRES   REMARKS
OAKLAND*       CLOUDY    68  63  83 SW8       30.15R
CUMBERLAND*    CLOUDY    68  64  88 CALM      30.11S

$$

VAZ025>031-271300-
SHENANDOAH VALLEY

CITY           SKY/WX    TMP DP  RH WIND       PRES   REMARKS
WINCHESTER*    CLOUDY    70  61  73 S3        30.08S
FRONT ROYAL*   FAIR      70  63  78 S5        30.07S
LURAY*         FAIR      70  66  88 CALM      30.10S
NEW MARKET*    FAIR      69  63  82 SW7       30.09F
STAUNTON*      PTSUNNY   67  62  83 S5        30.13F
WAYNESBORO*    FAIR      66  63  89 CALM      30.13S

$$

WVZ021-048>050-054>055-271300-
EASTERN WEST VIRGINIA PANHANDLE

CITY           SKY/WX    TMP DP  RH WIND       PRES   REMARKS
MARTINSBURG    PTSUNNY   66  61  84 CALM      30.07S
PETERSBURG*    FAIR      70  67  90 CALM      30.08F

$$

VAZ036>039-050-271300-
CENTRAL FOOTHILLS

CITY           SKY/WX    TMP DP  RH WIND       PRES   REMARKS
CHARLOTTESVILL FAIR      69  64  84 S5        30.10S
CULPEPER*      FAIR      69  65  88 SW3       30.11R
ORANGE*        FAIR      68  66  94 S8        30.12R
GORDONSVILLE*  FAIR      67  64  90 SW5       30.10R
WARRENTON*     FAIR      70  61  73 S7        30.10S

$$

VAZ055>057-271300-
NORTH AND CENTRAL PIEDMONT

CITY           SKY/WX    TMP DP  RH WIND       PRES   REMARKS
FREDERICKSBRG* FAIR      68  68 100 S5        30.10S
STAFFORD*      FAIR      68  64  86 S5        30.15S

$$

NCZ024-NYZ072-PAZ021-071-VAZ022-071-271300-
OTHER REGIONAL OBSERVATIONS

CITY           SKY/WX    TMP DP  RH WIND       PRES   REMARKS
NEW YORK CITY  SUNNY     70  57  63 W7        30.13S
PHILADELPHIA   PTSUNNY   68  63  84 S12       30.10F
PITTSBURGH     LGT RAIN  73  66  78 W6        30.04R
ROANOKE        PTSUNNY   69  64  84 CALM      30.16R
RICHMOND       PTSUNNY   65  65 100 S5        30.12S FOG
RALEIGH        MOSUNNY   71  67  87 S3        30.12F

$$

ANZ530>537-271300-
MARINE OBSERVATIONS

STATION/POSITION TIME  TEMP    WIND        PRES
                       AIR SEA DIR/SP/G
                 (UTC) (F)     (DEG/KT/KT) (MB)
THOMAS PT LIGHT  1200   70 75  190/ 13/ 14 1020.3F
BALT KEY BRIDGE  1148   70     170/ 10/ 11 1018.6F
COVE POINT       1148   69     210/  7/  9 1020.0F
LEWISETTA        1148   69 75  230/  5/  7 1019.6R
SOLOMONS ISLAND  1148   70 78  190/  6/  7   N/A
PINEY POINT      1148          210/  4/  5   N/A

$$





USA.gov is the U.S. government's official web portal to all federal, state and local government web resources and services.